Regional Weather Roundup
Issued by NWS

Home | Current Version | Previous Version | Graphics & Text | Print | Product List | Glossary On
Versions: 1 2 3 4 5 6 7 8 9 10 11 12 13 14 15 16 17 18 19 20 21 22 23 24 25 26 27 28 29 30 31 32 33 34 35 36 37 38 39 40 41 42 43 44 45 46 47 48 49 50
000
ASUS43 KMKX 260310
RWRWI

WISCONSIN REGIONAL WEATHER ROUNDUP
NATIONAL WEATHER SERVICE MILWAUKEE/SULLIVAN WI
1000 PM CDT WED APR 25 2018

NOTE: "FAIR" INDICATES FEW OR NO CLOUDS BELOW 12,000 FEET WITH NO
SIGNIFICANT WEATHER AND/OR OBSTRUCTIONS TO VISIBILITY.

WIZ001-002-006>008-014>016-023>028-260400-
NORTHWEST WISCONSIN

CITY           SKY/WX    TMP DP  RH WIND       PRES   REMARKS
SUPERIOR ARPT  FAIR      36  27  69 CALM      29.94S
ASHLAND        FAIR      33  27  78 SW3       29.95F
HAYWARD        FAIR      39  23  52 CALM      29.97S
SIREN          FAIR      40  23  52 CALM      29.96F
CUMBERLAND     FAIR      37  27  65 CALM      29.98S
RICE LAKE      FAIR      40  30  65 CALM      30.00S
CHETEK         FAIR      39  27  61 SE5       29.99S
LADYSMITH      FAIR      41  26  55 CALM      30.00S
EAU CLAIRE     FAIR      43  26  51 CALM      29.98F
MENOMONIE      FAIR      46  29  53 CALM      29.99F
NEW RICHMOND   FAIR      42  29  58 CALM      29.99S
OSCEOLA        FAIR      43  30  61 S5        30.00F
$$

WIZ003>005-009-010-017-018-260400-
NORTH CENTRAL WISCONSIN

CITY           SKY/WX    TMP DP  RH WIND       PRES   REMARKS
MANITOWISH WTR FAIR      33  21  63 CALM      29.96S
ARBOR VITAE    FAIR      37  23  57 CALM      29.96F
WOODRUFF       FAIR      37  23  57 CALM      29.96F
RHINELANDER    FAIR      36  21  54 CALM      29.97F
EAGLE RIVER    FAIR      33  18  54 CALM      29.96F
LAND O LAKES   FAIR      31  22  72 CALM      29.97F
PHILLIPS       FAIR      35  25  67 CALM      29.97F
TOMAHAWK       FAIR      32  25  74 CALM      29.97F
MEDFORD        FAIR      40  28  62 CALM      29.98F
MERRILL        FAIR      36  28  74 CALM      29.98F
$$

WIZ029-030-035-036-043>047-260400-
CENTRAL WISCONSIN

CITY           SKY/WX    TMP DP  RH WIND       PRES   REMARKS
WAUSAU         FAIR      43  26  51 CALM      29.97F
MOSINEE        PTCLDY    45  25  45 W3        30.00F
MARSHFIELD     FAIR      40  27  59 SW3       29.98F
STEVENS POINT  FAIR      36  27  70 CALM      30.00F
WAUPACA        FAIR      43  32  66 CALM      30.01S
WAUTOMA        FAIR      38  29  70 CALM      30.02R
WISC RAPIDS    FAIR      38  27  64 CALM      30.01S
CAMP DOUGLAS   CLEAR     39  30  70 CALM      30.00S
$$

WIZ011>013-019>022-031-037>040-048>050-260400-
NORTHEAST WISCONSIN

CITY           SKY/WX    TMP DP  RH WIND       PRES   REMARKS
ANTIGO         FAIR      38  29  70 CALM      29.98F
SHAWANO        FAIR      40  31  70 NE3       29.99S
OCONTO         FAIR      37  29  74 SE3       30.01F
STURGEON BAY   FAIR      38  28  67 S5        30.02S WCI  34
GREEN BAY      FAIR      41  34  76 SE7       30.01S
MANITOWOC      FAIR      38  28  67 S3        30.03F
APPLETON       PTCLDY    43  27  52 S5        29.98F
CLINTONVILLE   FAIR      44  29  55 CALM      29.99F
OSHKOSH        FAIR      42  33  70 S5        30.00S
$$

WIZ032>034-041-042-053>061-260400-
SOUTHWEST WISCONSIN

CITY           SKY/WX    TMP DP  RH WIND       PRES   REMARKS
LA CROSSE      FAIR      48  35  60 CALM      29.99F
SPARTA         FAIR      38  30  71 CALM      30.02S
VIROQUA        FAIR      51  28  42 CALM      30.00S
BOSCOBEL       FAIR      45  32  60 CALM      30.01S
PRAIRIE DU CHI FAIR      45  30  54 CALM      30.00F
PLATTEVILLE    FAIR      48  31  51 N3        30.00S
$$

WIZ056-057-062-063-064-067-068-260400-
SOUTH CENTRAL WISCONSIN

CITY           SKY/WX    TMP DP  RH WIND       PRES   REMARKS
REEDSBURG      FAIR      47  31  54 CALM      30.00S
BARABOO/DELLS  FAIR      43  24  48 CALM      30.00F
LONE ROCK      FAIR      45  32  60 CALM      30.00S
MINERAL POINT  FAIR      54  27  35 E5        30.00S
MADISON        FAIR      46  29  51 CALM      30.00F
MIDDLETON      FAIR      43  32  65 CALM      30.01S
WATERTOWN      FAIR      41  32  70 SE5       30.02S
MONROE         FAIR      50  27  40 E3        29.99F
JANESVILLE     FAIR      43  32  65 SE8       30.02S
$$

WIZ051-052-058>065-066-070>072-260400-
SOUTHEAST WISCONSIN

CITY           SKY/WX    TMP DP  RH WIND       PRES   REMARKS
MILWAUKEE      FAIR      40  29  64 CALM      30.03F
WAUKESHA       FAIR      36  28  75 E3        30.03F
MILWAUKEE/TIMM FAIR      37  25  60 CALM      30.04F
RACINE         FAIR      38  30  73 N5        30.04F WCI  34
BURLINGTON     FAIR      37  28  69 CALM      30.03F
KENOSHA        FAIR      37  26  64 CALM      30.03F
FOND DU LAC    FAIR      41  32  70 S8        30.01S
SHEBOYGAN      FAIR      35  29  78 CALM      30.03S
WEST BEND      FAIR      36  28  75 CALM      30.03F
JUNEAU         FAIR      42  32  69 SE6       30.03S
$$

LSZ147-162-260400-
LAKE SUPERIOR

STATION/POSITION TIME  TEMP    WIND        PRES    WAVE
                       AIR SEA DIR/SP/G            HT/PER
                 (UTC) (F)     (DEG/KT/KT) (MB)    (FT/S)
DEVILS ISLAND    0300   47     180/ 11/ 13 1013.8F
SAXON HARBOR     0240   36     200/  3/  4 1013.5F
$$

LMZ867-665-643>646-260400-
LAKE MICHIGAN

STATION/POSITION TIME  TEMP    WIND        PRES    WAVE
                       AIR SEA DIR/SP/G            HT/PER
                 (UTC) (F)     (DEG/KT/KT) (MB)    (FT/S)
NORTHPORT PIER   0240   37                 1016.3S
KEWAUNEE LAKESHO 0248   39     220/  1/  2 1016.0F
SHEBOYGAN LAKESH 0300   40     210/  3/  3 1017.3F
PORT WASHINGTON  0240   40     280/  1/  2 1018.3S
MILWAUKEE LAKESH 0250   40     190/  1/  2   N/A
KENOSHA   LAKESH 0300   40                 1016.9
$$

TC  - TEMPERATURE IN CELSIUS
VSB - VISIBILITY IN STATUTE MILES
WCI - WIND CHILL INDEX
HX  - HEAT INDEX





USA.gov is the U.S. government's official web portal to all federal, state and local government web resources and services.